Hunt Field
KLND : now visible

Airfield :











YOU CAN JOIN US ON...

 
LOGIN :

Register | Disclaimer

   EN    FR    IT 

 









Legend :    VFR   Marginal VFR   IFR   Intensive IFR   Very Intensive IFR
Visi :
Ceiling :
>= 8 km
>= 3000ft
5 to 8 km
1000 to 3000 ft
1500m to 5 km
500 to 1000 ft
800 to 1500m
200 to 500 ft
< 800m
< 200 ft
Symbols :   Thunderstorms  Fog  Heavy snow  Heavy precipitations  Wind > 20 kt







- Airport Elevation : 5586 ft


KLND - Hunt Field

CURRENT METAR :
  • 201453Z AUTO 01004KT 10SM BKN046 14/06 A2986 RMK AO2 SLP052 T01440061 58003

EXPIRED METARs :
  • 201353Z AUTO 00000KT 10SM BKN047 13/06 A2986 RMK AO2 SLP055 T01280061

TAF KLND
Valid from the 20 at 12:00 until the 21 at 12:00 UTC


201123Z 2012/2112 VRB05KT P6SM BKN090
FM201600 VRB05KT P6SM VCSH SCT070 BKN090
FM201900 24015G25KT P6SM SCT090
FM210000 27012KT P6SM SCT090
FM210300 25010KT P6SM BKN090
No reported NOTAMs for that airfield.



MET'MAP, your aeronautical weather chart ! - Copyright ORBIFLY December 2007 - Disclaimer

ORBIFLY MET'MAP TEAM :

Programming & Development : Alexandra Zaïnal
Concept & Development : Baudouin d'Aumeries
Co-Development & Prog : Marc-Olivier Méhu
Technical & hardware support : Manuel Goepfert

Contact : metmap@orbifly.com




SOURCES & CREDITS :

   NOAA       Earth
Advisory